DLH2EM EDDH-EDDF

Flight info

Callsign DLH2EM
Flight time 0h 47m
Altitude 30000
Route AMLUH2G/33 AMLUH M852 DENIX DCT RIMET/N0453F310 T157 KOKEB/N0411F230 T157 KERAX KERAX5A
Aircraft A320/M-SDE3FGHIRWY/LB1

Departure

Time 2026-05-04 19:34
Airport Hamburg Helmut Schmidt Airport (EDDH)

Arrival

Time 2026-05-04 20:21
Airport Frankfurt Main Airport (EDDF)
Time Latitude Longitude Altitude Speed Heading
2026-05-04 19:04 53.62942 10.00288 47 ft 0 kts 123°
2026-05-04 19:26 53.62944 10.00282 48 ft 2 kts 127°
2026-05-04 19:26 53.62955 10.00260 47 ft 2 kts 162°
2026-05-04 19:27 53.62971 10.00251 48 ft 2 kts 161°
2026-05-04 19:27 53.62987 10.00242 47 ft 2 kts 161°
2026-05-04 19:27 53.63003 10.00233 46 ft 2 kts 167°
2026-05-04 19:27 53.63019 10.00225 46 ft 2 kts 161°
2026-05-04 19:28 53.63035 10.00219 44 ft 2 kts 196°
2026-05-04 19:28 53.63039 10.00221 44 ft 0 kts 196°
2026-05-04 19:29 53.63038 10.00221 44 ft 2 kts 196°
2026-05-04 19:29 53.63011 10.00202 46 ft 5 kts 206°
2026-05-04 19:29 53.62986 10.00176 48 ft 4 kts 215°
2026-05-04 19:30 53.62962 10.00148 46 ft 6 kts 212°
2026-05-04 19:30 53.62907 10.00089 46 ft 12 kts 214°
2026-05-04 19:30 53.62855 9.99994 48 ft 10 kts 242°
2026-05-04 19:30 53.62845 9.99959 45 ft 0 kts 245°
2026-05-04 19:31 53.62839 9.99937 47 ft 6 kts 244°
2026-05-04 19:31 53.62816 9.99836 45 ft 10 kts 265°
2026-05-04 19:31 53.62844 9.99766 45 ft 0 kts 329°
2026-05-04 19:33 53.62917 9.99702 45 ft 42 kts 332°
2026-05-04 19:33 53.63399 9.99284 47 ft 110 kts 333°
2026-05-04 19:33 53.64241 9.98548 55 ft 160 kts 332°
2026-05-04 19:34 53.65241 9.97671 702 ft 162 kts 333°
2026-05-04 19:34 53.66244 9.96816 1441 ft 164 kts 333°
2026-05-04 19:34 53.67324 9.95894 1843 ft 185 kts 333°
2026-05-04 19:34 53.68575 9.94892 2196 ft 207 kts 341°
2026-05-04 19:35 53.70049 9.94656 2826 ft 218 kts 359°
2026-05-04 19:35 53.71556 9.94703 3689 ft 221 kts
2026-05-04 19:35 53.73010 9.95622 4443 ft 234 kts 40°
2026-05-04 19:35 53.73860 9.97960 5217 ft 240 kts 73°
2026-05-04 19:36 53.74245 10.00711 6039 ft 242 kts 84°
2026-05-04 19:36 53.74112 10.03539 6806 ft 244 kts 109°
2026-05-04 19:36 53.73388 10.06231 7235 ft 263 kts 125°
2026-05-04 19:36 53.72389 10.08982 7702 ft 284 kts 123°
2026-05-04 19:37 53.71382 10.11905 8478 ft 291 kts 122°
2026-05-04 19:37 53.70377 10.14910 9352 ft 296 kts 122°
2026-05-04 19:37 53.69221 10.17812 9844 ft 299 kts 134°
2026-05-04 19:37 53.67689 10.20131 10013 ft 298 kts 150°
2026-05-04 19:38 53.65786 10.21749 10291 ft 317 kts 164°
2026-05-04 19:38 53.63589 10.22780 10582 ft 338 kts 168°
2026-05-04 19:38 53.61287 10.23813 11149 ft 348 kts 168°
2026-05-04 19:38 53.58927 10.24885 11871 ft 353 kts 168°
2026-05-04 19:39 53.56541 10.25981 12618 ft 358 kts 168°
2026-05-04 19:39 53.54127 10.27095 13354 ft 362 kts 167°
2026-05-04 19:39 53.51688 10.28219 14067 ft 366 kts 167°
2026-05-04 19:39 53.49218 10.29353 14722 ft 370 kts 167°
2026-05-04 19:40 53.46724 10.30497 15362 ft 374 kts 167°
2026-05-04 19:40 53.44205 10.31654 15987 ft 378 kts 167°
2026-05-04 19:40 53.41657 10.32821 16620 ft 381 kts 168°
2026-05-04 19:40 53.39082 10.33987 17231 ft 386 kts 168°
2026-05-04 19:41 53.36474 10.35156 17835 ft 390 kts 168°
2026-05-04 19:41 53.33844 10.36327 18418 ft 393 kts 168°
2026-05-04 19:41 53.31191 10.37509 18958 ft 396 kts 168°
2026-05-04 19:41 53.28523 10.38703 19515 ft 397 kts 168°
2026-05-04 19:42 53.25858 10.39897 20169 ft 396 kts 168°
2026-05-04 19:42 53.23191 10.41089 20745 ft 398 kts 168°
2026-05-04 19:42 53.20511 10.42288 21279 ft 400 kts 169°
2026-05-04 19:42 53.17817 10.43491 21806 ft 402 kts 169°
2026-05-04 19:43 53.15108 10.44680 22330 ft 403 kts 171°
2026-05-04 19:43 53.12344 10.45359 22827 ft 401 kts 181°
2026-05-04 19:43 53.09567 10.45263 23327 ft 399 kts 188°
2026-05-04 19:43 53.06791 10.44874 23785 ft 401 kts 188°
2026-05-04 19:44 53.04005 10.44485 24192 ft 403 kts 188°
2026-05-04 19:44 53.01203 10.44095 24593 ft 405 kts 188°
2026-05-04 19:44 52.98402 10.43705 24990 ft 407 kts 189°
2026-05-04 19:44 52.95572 10.43312 25385 ft 409 kts 189°
2026-05-04 19:45 52.92731 10.42920 25772 ft 411 kts 189°
2026-05-04 19:45 52.89877 10.42531 26158 ft 413 kts 189°
2026-05-04 19:45 52.87007 10.42142 26542 ft 415 kts 189°
2026-05-04 19:45 52.84122 10.41752 26916 ft 417 kts 189°
2026-05-04 19:46 52.81224 10.41358 27291 ft 419 kts 189°
2026-05-04 19:46 52.78316 10.40962 27639 ft 421 kts 189°
2026-05-04 19:46 52.75392 10.40565 27980 ft 423 kts 189°
2026-05-04 19:46 52.72453 10.40167 28316 ft 425 kts 189°
2026-05-04 19:47 52.69504 10.39768 28652 ft 426 kts 189°
2026-05-04 19:47 52.66537 10.39368 28984 ft 428 kts 189°
2026-05-04 19:47 52.63560 10.38969 29301 ft 430 kts 189°
2026-05-04 19:47 52.60611 10.38574 29609 ft 432 kts 189°
2026-05-04 19:48 52.58585 10.38300 29862 ft 432 kts 189°
2026-05-04 19:48 52.54633 10.37772 29971 ft 427 kts 189°
2026-05-04 19:48 52.51681 10.37386 29992 ft 425 kts 189°
2026-05-04 19:49 52.45796 10.36603 29992 ft 424 kts 189°
2026-05-04 19:49 52.40904 10.35945 29990 ft 424 kts 189°
2026-05-04 19:50 52.35024 10.35161 30002 ft 424 kts 189°
2026-05-04 19:50 52.29145 10.34369 29975 ft 424 kts 190°
2026-05-04 19:51 52.23263 10.33590 29979 ft 424 kts 190°
2026-05-04 19:51 52.17412 10.32609 29984 ft 418 kts 199°
2026-05-04 19:52 52.11820 10.30096 29983 ft 417 kts 200°
2026-05-04 19:52 52.06236 10.27552 29975 ft 417 kts 200°
2026-05-04 19:53 52.00653 10.25025 29994 ft 416 kts 200°
2026-05-04 19:53 51.95077 10.22513 29991 ft 416 kts 200°
2026-05-04 19:54 51.89507 10.20001 30000 ft 416 kts 200°
2026-05-04 19:54 51.83939 10.17507 29970 ft 415 kts 200°
2026-05-04 19:55 51.78367 10.15012 29971 ft 416 kts 199°
2026-05-04 19:55 51.72789 10.12516 29987 ft 416 kts 199°
2026-05-04 19:56 51.67200 10.10022 29659 ft 418 kts 199°
2026-05-04 19:56 51.64393 10.08777 29207 ft 419 kts 199°
2026-05-04 19:56 51.61581 10.07531 28733 ft 420 kts 199°
2026-05-04 19:56 51.58753 10.06274 28257 ft 422 kts 198°
2026-05-04 19:57 51.55913 10.05017 27802 ft 424 kts 198°
2026-05-04 19:57 51.53059 10.03757 27356 ft 426 kts 198°
2026-05-04 19:57 51.50203 10.02500 26915 ft 425 kts 198°
2026-05-04 19:57 51.47355 10.01247 26480 ft 423 kts 198°
2026-05-04 19:58 51.44521 9.99996 26049 ft 421 kts 198°
2026-05-04 19:58 51.41703 9.98752 25630 ft 420 kts 198°
2026-05-04 19:58 51.38893 9.97519 25213 ft 418 kts 198°
2026-05-04 19:58 51.36096 9.96293 24981 ft 416 kts 198°
2026-05-04 19:59 51.33304 9.95070 24999 ft 416 kts 198°
2026-05-04 19:59 51.30512 9.93845 24975 ft 417 kts 198°
2026-05-04 19:59 51.27718 9.92621 24623 ft 415 kts 197°
2026-05-04 19:59 51.24938 9.91408 24266 ft 413 kts 197°
2026-05-04 20:00 51.22169 9.90202 24019 ft 412 kts 197°
2026-05-04 20:00 51.19408 9.89002 23994 ft 411 kts 197°
2026-05-04 20:00 51.16643 9.87799 24008 ft 412 kts 197°
2026-05-04 20:00 51.13880 9.86593 24006 ft 412 kts 197°
2026-05-04 20:01 51.11111 9.85387 23959 ft 413 kts 197°
2026-05-04 20:01 51.08338 9.84183 23724 ft 412 kts 197°
2026-05-04 20:01 51.05578 9.82988 23371 ft 409 kts 197°
2026-05-04 20:01 51.02850 9.81810 22695 ft 404 kts 197°
2026-05-04 20:02 51.00160 9.80650 22099 ft 398 kts 197°
2026-05-04 20:02 50.97501 9.79501 21511 ft 393 kts 197°
2026-05-04 20:02 50.94879 9.78368 20951 ft 388 kts 197°
2026-05-04 20:02 50.92286 9.77250 20411 ft 384 kts 197°
2026-05-04 20:03 50.89727 9.76150 19886 ft 379 kts 197°
2026-05-04 20:03 50.87197 9.75067 19392 ft 374 kts 197°
2026-05-04 20:03 50.84699 9.73999 18906 ft 370 kts 197°
2026-05-04 20:03 50.82228 9.72940 18435 ft 366 kts 197°
2026-05-04 20:04 50.79814 9.71911 17945 ft 362 kts 196°
2026-05-04 20:04 50.77394 9.70883 17470 ft 358 kts 196°
2026-05-04 20:04 50.75005 9.69870 17011 ft 353 kts 196°
2026-05-04 20:04 50.72642 9.68866 16540 ft 350 kts 196°
2026-05-04 20:05 50.70303 9.67869 16072 ft 347 kts 196°
2026-05-04 20:05 50.67980 9.66878 15594 ft 345 kts 196°
2026-05-04 20:05 50.65673 9.65894 15111 ft 343 kts 196°
2026-05-04 20:05 50.63376 9.64915 14611 ft 341 kts 196°
2026-05-04 20:06 50.61083 9.63938 14108 ft 341 kts 196°
2026-05-04 20:06 50.58799 9.62969 13566 ft 340 kts 196°
2026-05-04 20:06 50.56521 9.62004 13033 ft 338 kts 196°
2026-05-04 20:06 50.54258 9.61047 12504 ft 335 kts 196°
2026-05-04 20:07 50.52015 9.60046 11976 ft 339 kts 201°
2026-05-04 20:07 50.50002 9.58136 11440 ft 340 kts 221°
2026-05-04 20:07 50.48286 9.55588 10949 ft 339 kts 224°
2026-05-04 20:07 50.46620 9.53020 10454 ft 330 kts 224°
2026-05-04 20:08 50.45035 9.50558 9971 ft 312 kts 224°
2026-05-04 20:08 50.43557 9.48252 9788 ft 287 kts 224°
2026-05-04 20:08 50.42182 9.46105 9519 ft 274 kts 224°
2026-05-04 20:08 50.40844 9.44011 9211 ft 270 kts 224°
2026-05-04 20:09 50.39518 9.41939 8824 ft 269 kts 224°
2026-05-04 20:09 50.38198 9.39874 8426 ft 268 kts 224°
2026-05-04 20:09 50.36881 9.37812 8020 ft 267 kts 224°
2026-05-04 20:09 50.35567 9.35757 7615 ft 267 kts 224°
2026-05-04 20:10 50.34256 9.33706 7207 ft 266 kts 224°
2026-05-04 20:10 50.32948 9.31662 6998 ft 266 kts 224°
2026-05-04 20:10 50.31636 9.29612 6996 ft 267 kts 224°
2026-05-04 20:10 50.30326 9.27562 6754 ft 265 kts 224°
2026-05-04 20:11 50.29021 9.25520 6333 ft 265 kts 224°
2026-05-04 20:11 50.27716 9.23486 5889 ft 265 kts 224°
2026-05-04 20:11 50.26411 9.21457 5456 ft 264 kts 224°
2026-05-04 20:11 50.25133 9.19469 5092 ft 262 kts 224°
2026-05-04 20:12 50.23843 9.17470 4992 ft 262 kts 224°
2026-05-04 20:12 50.22545 9.15462 4999 ft 263 kts 224°
2026-05-04 20:12 50.21243 9.13450 5001 ft 264 kts 224°
2026-05-04 20:12 50.19940 9.11435 5001 ft 264 kts 224°
2026-05-04 20:13 50.18670 9.09460 4992 ft 249 kts 226°
2026-05-04 20:13 50.17556 9.07515 4994 ft 235 kts 231°
2026-05-04 20:13 50.16819 9.05333 4998 ft 221 kts 248°
2026-05-04 20:13 50.16310 9.03119 4998 ft 214 kts 249°
2026-05-04 20:14 50.15814 9.00943 4999 ft 213 kts 249°
2026-05-04 20:14 50.15310 8.98778 4999 ft 212 kts 249°
2026-05-04 20:14 50.14804 8.96612 5000 ft 212 kts 248°
2026-05-04 20:14 50.14298 8.94450 5001 ft 212 kts 249°
2026-05-04 20:15 50.13792 8.92291 5001 ft 212 kts 249°
2026-05-04 20:15 50.13288 8.90145 4999 ft 206 kts 248°
2026-05-04 20:15 50.12812 8.88114 5016 ft 191 kts 248°
2026-05-04 20:15 50.12367 8.86224 4960 ft 183 kts 248°
2026-05-04 20:16 50.11933 8.84381 4761 ft 180 kts 248°
2026-05-04 20:16 50.11502 8.82553 4523 ft 180 kts 248°
2026-05-04 20:16 50.11072 8.80727 4267 ft 179 kts 249°
2026-05-04 20:16 50.10645 8.78917 4014 ft 179 kts 249°
2026-05-04 20:17 50.10217 8.77105 3765 ft 178 kts 249°
2026-05-04 20:17 50.09792 8.75305 3512 ft 177 kts 249°
2026-05-04 20:17 50.09365 8.73500 3260 ft 177 kts 250°
2026-05-04 20:17 50.08942 8.71715 3017 ft 177 kts 250°
2026-05-04 20:18 50.08519 8.69928 2763 ft 176 kts 250°
2026-05-04 20:18 50.08098 8.68152 2522 ft 175 kts 250°
2026-05-04 20:18 50.07678 8.66382 2274 ft 176 kts 251°
2026-05-04 20:18 50.07252 8.64585 2017 ft 181 kts 251°
2026-05-04 20:19 50.06840 8.62857 1760 ft 163 kts 251°
2026-05-04 20:19 50.06469 8.61297 1538 ft 149 kts 251°
2026-05-04 20:19 50.06120 8.59837 1294 ft 143 kts 251°
2026-05-04 20:19 50.05778 8.58408 1018 ft 138 kts 251°
2026-05-04 20:20 50.05451 8.57022 836 ft 137 kts 251°
2026-05-04 20:20 50.05130 8.55640 723 ft 137 kts 250°
2026-05-04 20:20 50.04802 8.54278 533 ft 136 kts 250°
2026-05-04 20:20 50.04472 8.52913 359 ft 132 kts 250°
2026-05-04 20:21 50.04195 8.51755 332 ft 83 kts 250°
2026-05-04 20:21 50.04060 8.51188 328 ft 40 kts 245°
2026-05-04 20:21 50.03863 8.50860 326 ft 0 kts 219°
2026-05-04 20:22 50.03826 8.50836 330 ft 8 kts 186°
2026-05-04 20:22 50.03791 8.50954 330 ft 21 kts 66°
2026-05-04 20:22 50.03857 8.51243 332 ft 33 kts 71°
2026-05-04 20:23 50.03924 8.51484 333 ft 24 kts 64°
2026-05-04 20:23 50.03972 8.51729 333 ft 24 kts 67°
2026-05-04 20:23 50.04033 8.51979 336 ft 25 kts 71°
2026-05-04 20:23 50.04093 8.52224 346 ft 21 kts 70°
2026-05-04 20:24 50.04145 8.52442 352 ft 22 kts 69°
2026-05-04 20:24 50.04197 8.52664 357 ft 22 kts 70°
2026-05-04 20:24 50.04251 8.52890 357 ft 23 kts 69°
2026-05-04 20:24 50.04305 8.53123 361 ft 23 kts 70°
2026-05-04 20:25 50.04358 8.53335 370 ft 19 kts 70°
2026-05-04 20:25 50.04395 8.53510 375 ft 15 kts 79°
2026-05-04 20:25 50.04405 8.53664 375 ft 15 kts 84°
2026-05-04 20:25 50.04414 8.53814 375 ft 13 kts 84°
2026-05-04 20:26 50.04423 8.53950 375 ft 12 kts 84°
2026-05-04 20:26 50.04430 8.54073 375 ft 12 kts 84°
2026-05-04 20:26 50.04442 8.54235 375 ft 18 kts 83°
2026-05-04 20:26 50.04454 8.54447 370 ft 22 kts 92°
2026-05-04 20:27 50.04377 8.54703 361 ft 30 kts 135°
2026-05-04 20:27 50.04191 8.54841 360 ft 28 kts 161°
2026-05-04 20:27 50.04086 8.54900 354 ft 9 kts 160°
2026-05-04 20:27 50.04075 8.54906 352 ft 0 kts 160°
2026-05-04 20:30 50.04050 8.54922 353 ft 10 kts 155°
2026-05-04 20:30 50.04026 8.55062 359 ft 21 kts 76°
2026-05-04 20:30 50.04090 8.55317 355 ft 27 kts 68°
2026-05-04 20:30 50.04148 8.55574 354 ft 25 kts 71°
2026-05-04 20:31 50.04203 8.55794 357 ft 19 kts 70°
2026-05-04 20:31 50.04265 8.55954 356 ft 16 kts 20°
2026-05-04 20:31 50.04363 8.55920 363 ft 10 kts 349°
2026-05-04 20:31 50.04416 8.55963 359 ft 9 kts 57°
2026-05-04 20:32 50.04435 8.56047 359 ft 8 kts 72°
2026-05-04 20:32 50.04453 8.56120 358 ft 7 kts 69°
2026-05-04 20:32 50.04458 8.56186 356 ft 5 kts 112°
2026-05-04 20:32 50.04439 8.56202 356 ft 3 kts 162°
2026-05-04 20:33 50.04425 8.56209 362 ft 2 kts 161°
2026-05-04 20:33 50.04414 8.56216 358 ft 1 kts 160°
2026-05-04 20:33 50.04407 8.56220 360 ft 1 kts 160°
2026-05-04 20:33 50.04404 8.56222 361 ft 0 kts 160°
2026-05-04 20:34 50.04403 8.56222 361 ft 0 kts 160°